This is the latest recevied weather packets stored in our database for station/object M0JUI-1. If no packets are shown the sender has not sent any weather packets the latest 10 day(s).
| Time | Temp. | Humidity | Pressure | Rain* | Wind** | Luminosity | Snow |
|---|---|---|---|---|---|---|---|
| 1778134371 | 5.56° C | 1% | 1016 hPa | 0 mm | - | 49 W/m² | - |
| 1778134071 | 5.56° C | 1% | 1016.1 hPa | 0 mm | - | 47 W/m² | - |
| 1778133772 | 5.56° C | 1% | 1016.1 hPa | 0 mm | - | 45 W/m² | - |
| 1778133459 | 5.56° C | 1% | 1016.1 hPa | 0 mm | - | 42 W/m² | - |
| 1778133159 | 5.56° C | 1% | 1016.1 hPa | 0 mm | - | 40 W/m² | - |
| 1778132859 | 5.56° C | 1% | 1016 hPa | 0 mm | - | 36 W/m² | - |
| 1778132559 | 5.56° C | 1% | 1016 hPa | 0 mm | - | 32 W/m² | - |
| 1778132259 | 5.56° C | 1% | 1016.1 hPa | 0 mm | - | 29 W/m² | - |
| 1778131960 | 5° C | 1% | 1016.1 hPa | 0 mm | - | 26 W/m² | - |
| 1778131659 | 5° C | 1% | 1016.3 hPa | 0 mm | - | 23 W/m² | - |
| 1778131359 | 5° C | 1% | 1015.9 hPa | 0 mm | - | 20 W/m² | - |
| 1778131060 | 5° C | 1% | 1016 hPa | 0 mm | - | 19 W/m² | - |
| 1778130759 | 5° C | 1% | 1016.1 hPa | 0 mm | - | 19 W/m² | - |
| 1778130459 | 5° C | 1% | 1016 hPa | 0 mm | - | 18 W/m² | - |
| 1778130159 | 5° C | 1% | 1016 hPa | 0 mm | - | 12 W/m² | - |
| 1778129859 | 5° C | 1% | 1016.1 hPa | 0 mm | - | 11 W/m² | - |
| 1778129559 | 5° C | 1% | 1016 hPa | 0 mm | - | 9 W/m² | - |
| 1778129259 | 4.44° C | 1% | 1016.1 hPa | 0 mm | - | 7 W/m² | - |
| 1778128947 | 4.44° C | 1% | 1016.1 hPa | 0 mm | - | 6 W/m² | - |
| 1778128647 | 4.44° C | 1% | 1016.2 hPa | 0 mm | - | 3 W/m² | - |
| 1778128348 | 4.44° C | 1% | 1015.9 hPa | 0 mm | - | 3 W/m² | - |
| 1778128048 | 4.44° C | 1% | 1015.9 hPa | 0 mm | - | 0 W/m² | - |
| 1778127747 | 4.44° C | 1% | 1015.8 hPa | 0 mm | - | 0 W/m² | - |
| 1778127447 | 4.44° C | 1% | 1015.8 hPa | 0 mm | - | 0 W/m² | - |
| 1778127147 | 4.44° C | 1% | 1015.8 hPa | 0 mm | - | 0 W/m² | - |
* Rain latest hour (hover to see other rain measurements)
** Current wind speed in m/s (hover to see current wind gust speed)